TimeMDT,TemperatureF,Dew PointF,Humidity,Sea Level PressureIn,VisibilityMPH,Wind Direction,Wind SpeedMPH,Gust SpeedMPH,PrecipitationIn,Events,Conditions,WindDirDegrees,DateUTC
12:53 AM,26.1,12.9,58,30.32,10.0,ENE,6.9,-,N/A,,Clear,70,2013-04-23 06:53:00
1:53 AM,27.0,12.0,53,30.31,10.0,East,8.1,-,N/A,,Clear,90,2013-04-23 07:53:00
2:53 AM,25.0,12.0,58,30.31,10.0,East,4.6,-,N/A,,Clear,90,2013-04-23 08:53:00
3:53 AM,23.0,12.0,63,30.30,10.0,Calm,Calm,-,N/A,,Clear,0,2013-04-23 09:53:00
4:53 AM,21.9,12.0,66,30.31,10.0,NE,4.6,-,N/A,,Clear,50,2013-04-23 10:53:00
5:53 AM,19.9,10.9,68,30.33,10.0,NNE,8.1,-,N/A,,Clear,30,2013-04-23 11:53:00
6:53 AM,18.0,10.9,74,30.35,10.0,SW,5.8,-,N/A,,Clear,220,2013-04-23 12:53:00
7:53 AM,25.0,15.1,66,30.34,10.0,Calm,Calm,-,N/A,,Clear,0,2013-04-23 13:53:00
8:53 AM,30.0,16.0,56,30.35,10.0,Calm,Calm,-,N/A,,Clear,0,2013-04-23 14:53:00
9:53 AM,37.0,12.0,36,30.33,10.0,Variable,4.6,-,N/A,,Clear,0,2013-04-23 15:53:00
10:53 AM,39.9,9.0,28,30.31,10.0,NE,9.2,-,N/A,,Clear,50,2013-04-23 16:53:00
11:53 AM,42.1,8.1,25,30.31,10.0,Variable,5.8,-,N/A,,Clear,0,2013-04-23 17:53:00
12:53 PM,44.1,6.1,21,30.29,10.0,Variable,6.9,-,N/A,,Clear,0,2013-04-23 18:53:00
1:53 PM,46.0,7.0,20,30.25,10.0,West,8.1,-,N/A,,Clear,280,2013-04-23 19:53:00
2:53 PM,45.0,-0.9,15,30.24,10.0,West,8.1,-,N/A,,Clear,270,2013-04-23 20:53:00
3:53 PM,46.0,6.1,20,30.21,10.0,Variable,4.6,-,N/A,,Clear,0,2013-04-23 21:53:00
4:53 PM,48.9,7.0,18,30.18,10.0,WSW,6.9,16.1,N/A,,Clear,250,2013-04-23 22:53:00
5:53 PM,48.0,8.1,20,30.17,10.0,West,9.2,-,N/A,,Clear,260,2013-04-23 23:53:00
6:53 PM,46.9,7.0,20,30.17,10.0,West,5.8,-,N/A,,Clear,260,2013-04-24 00:53:00
7:53 PM,45.0,10.0,24,30.15,10.0,Calm,Calm,-,N/A,,Mostly Cloudy,0,2013-04-24 01:53:00
8:53 PM,37.9,17.1,43,30.16,10.0,SE,4.6,-,N/A,,Partly Cloudy,130,2013-04-24 02:53:00
9:53 PM,39.0,15.1,38,30.15,10.0,SE,3.5,-,N/A,,Partly Cloudy,130,2013-04-24 03:53:00
10:53 PM,35.1,17.1,48,30.17,9.0,East,4.6,-,N/A,,Clear,100,2013-04-24 04:53:00
11:53 PM,35.1,18.0,50,30.17,10.0,East,3.5,-,N/A,,Overcast,100,2013-04-24 05:53:00